1521990000.23,9978,13.38,72574.3,-2.77,-39.91,-39.41,0,*60
1521990001.5,9979,13.38,72574.0,-2.77,-40.21,-39.71,0,*67
1521990002.75,9980,13.38,72572.8,-2.77,-40.41,-40.03,0,*6C
1521990004.01,9981,13.38,72574.8,-2.75,-40.35,-39.79,0,*6F
1521990005.26,9982,13.38,72574.3,-2.77,-40.29,-39.65,0,*6E
1521990006.53,9983,13.38,72574.3,-2.77,-40.21,-39.71,0,*62
1521990007.75,9984,13.38,72576.5,-2.77,-40.47,-40.03,0,*6E
1521990009.0,9985,13.38,72572.8,-2.77,-40.65,-40.09,0,*65
1521990010.24,9986,13.38,72572.0,-2.77,-40.65,-40.41,0,*6A
1521990011.49,9987,13.38,72572.3,-2.77,-40.65,-40.09,0,*67
1521990012.71,9988,13.38,72572.5,-2.81,-40.73,-40.15,0,*6B
1521990013.94,9989,13.38,72572.3,-2.79,-40.41,-39.91,0,*6E
1521990015.22,9990,13.38,72572.8,-2.77,-40.21,-39.71,0,*60
1521990016.47,9991,13.38,72572.0,-2.79,-40.59,-40.09,0,*61
1521990017.73,9992,13.38,72572.0,-2.79,-40.85,-40.41,0,*6F
1521990018.93,9993,13.38,72572.5,-2.79,-39.91,-39.47,0,*6D
1521990020.16,9994,13.38,72572.8,-2.79,-40.41,-39.91,0,*62
1521990021.42,9995,13.38,72574.3,-2.79,-40.85,-40.41,0,*68
1521990022.65,9996,13.38,72574.3,-2.79,-40.41,-39.91,0,*60
1521990023.88,9997,13.38,72574.8,-2.79,-40.47,-40.09,0,*68
1521990025.15,9998,13.38,72574.8,-2.81,-40.29,-39.79,0,*61
1521990026.37,9999,13.38,72572.0,-2.81,-39.91,-39.47,0,*60
1521990027.58,10000,13.38,72570.3,-2.79,-39.65,-39.09,0,*57
1521990028.82,10001,13.38,72574.0,-2.79,-39.65,-39.41,0,*5A
1521990030.06,10002,13.38,72572.3,-2.79,-40.09,-39.65,0,*5B
1521990031.31,10003,13.38,72574.8,-2.81,-40.47,-39.97,0,*5A
1521990032.54,10004,13.38,72574.3,-2.79,-40.03,-39.59,0,*58
1521990033.8,10005,13.38,72572.0,-2.81,-40.15,-39.53,0,*53
1521990035.03,10006,13.38,72572.0,-2.79,-40.09,-39.47,0,*5F
1521990036.25,10007,13.38,72574.8,-2.81,-40.53,-39.91,0,*5D
1521990037.48,10008,13.38,72572.8,-2.81,-40.35,-39.91,0,*52
1521990038.75,10009,13.38,72568.5,-2.79,-40.41,-40.09,0,*58
1521990040.01,10010,13.38,72572.8,-2.79,-40.59,-40.09,0,*59
1521990041.27,10011,13.38,72572.0,-2.79,-40.59,-40.09,0,*58
1521990042.51,10012,13.38,72578.0,-2.81,-40.53,-40.09,0,*56
1521990043.78,10013,13.38,72570.8,-2.81,-40.15,-39.79,0,*5C
1521990045.03,10014,13.38,72570.5,-2.81,-40.53,-40.09,0,*50
1521990046.3,10015,13.38,72570.5,-2.81,-39.97,-39.71,0,*56
1521990047.56,10016,13.38,72570.0,-2.81,-39.79,-39.35,0,*55
1521990048.82,10017,13.38,72568.5,-2.81,-39.91,-39.29,0,*5F
1521990050.04,10018,13.38,72574.3,-2.81,-39.91,-39.47,0,*58
1521990051.27,10019,13.38,72574.0,-2.81,-40.53,-39.91,0,*52
1521990052.52,10020,13.38,72572.0,-2.81,-40.35,-39.97,0,*5E
1521990053.77,10021,13.38,72574.3,-2.81,-40.35,-39.79,0,*5F
1521990055.05,10022,13.38,72572.5,-2.81,-40.29,-39.79,0,*51
1521990056.32,10023,13.38,72570.3,-2.81,-40.29,-39.79,0,*50
1521990057.57,10024,13.38,72572.3,-2.83,-39.97,-39.41,0,*55
1521990058.82,10025,13.38,72572.0,-2.83,-39.97,-39.53,0,*57
1521990060.05,10026,13.38,72574.0,-2.83,-39.85,-39.53,0,*57
1521990061.3,10027,13.38,72572.3,-2.83,-40.21,-39.79,0,*5E
1521990062.53,10028,13.38,72572.3,-2.81,-40.47,-39.91,0,*55
1521990063.78,10029,13.38,72574.0,-2.81,-40.47,-40.09,0,*5B
1521990065.03,10030,13.38,72576.0,-2.81,-40.85,-40.47,0,*57
1521990066.32,10031,13.38,72576.0,-2.85,-40.41,-39.97,0,*59
1521990067.55,10032,13.38,72574.8,-2.85,-40.73,-40.15,0,*5F
1521990068.75,10033,13.38,72574.3,-2.83,-40.35,-39.85,0,*5D
1521990069.95,10034,13.38,72574.0,-2.83,-40.53,-40.03,0,*5A
1521990071.15,10035,13.38,72572.3,-2.83,-40.73,-40.35,0,*5C
1521990072.44,10036,13.38,72576.0,-2.85,-40.97,-40.59,0,*59
1521990073.66,10037,13.38,72572.8,-2.83,-40.73,-40.21,0,*5B
1521990074.89,10038,13.38,72572.0,-2.85,-40.53,-40.15,0,*57
1521990076.16,10039,13.38,72572.0,-2.85,-40.15,-39.71,0,*58
1521990077.44,10040,13.38,72572.8,-2.85,-39.97,-39.41,0,*51
1521990078.7,10041,13.38,72572.5,-2.85,-40.03,-39.71,0,*50
1521990079.96,10042,13.38,72572.8,-2.85,-40.59,-40.03,0,*57
1521990081.19,10043,13.38,72574.8,-2.83,-40.41,-40.03,0,*59
1521990082.47,10044,13.38,72574.5,-2.85,-40.59,-40.21,0,*51
1521990083.72,10045,13.38,72574.8,-2.85,-40.53,-39.97,0,*59
1521990085.01,10046,13.38,72572.3,-2.85,-40.41,-39.97,0,*59
1521990086.23,10047,13.38,72576.5,-2.85,-40.53,-40.03,0,*58
1521990087.46,10048,13.38,72572.8,-2.87,-40.65,-40.29,0,*58
1521990088.71,10049,13.38,72572.5,-2.87,-40.79,-40.29,0,*54
1521990089.94,10050,13.38,72572.8,-2.87,-40.65,-40.29,0,*51
1521990091.17,10051,13.38,72572.3,-2.87,-40.65,-40.21,0,*58
1521990092.4,10052,13.38,72578.3,-2.87,-40.21,-39.65,0,*55
1521990093.64,10053,13.38,72576.5,-2.87,-39.91,-39.59,0,*5E
1521990094.9,10054,13.38,72574.0,-2.89,-40.41,-39.91,0,*50
1521990096.16,10055,13.38,72572.0,-2.87,-40.21,-39.79,0,*5F
1521990097.41,10056,13.38,72572.8,-2.87,-40.21,-39.79,0,*5C
1521990098.66,10057,13.38,72572.0,-2.89,-40.29,-39.91,0,*5D
1521990099.89,10058,13.38,72572.5,-2.87,-40.59,-40.03,0,*5E
1521990101.14,10059,13.38,72576.0,-2.89,-40.65,-40.21,0,*5E
1521990102.43,10060,13.38,72574.5,-2.89,-40.85,-40.41,0,*5C
1521990103.7,10061,13.38,72574.5,-2.89,-41.03,-40.59,0,*5B
1521990104.95,10062,13.38,72574.5,-2.87,-40.79,-40.29,0,*5D
1521990106.2,10063,13.38,72576.0,-2.89,-40.65,-40.09,0,*5D
1521990107.43,10064,13.38,72578.0,-2.91,-40.85,-40.35,0,*52
1521990108.67,10065,13.38,72574.3,-2.91,-40.85,-40.35,0,*53
1521990109.88,10066,13.38,72576.0,-2.91,-40.73,-40.15,0,*5B
1521990111.09,10067,13.38,72572.8,-2.95,-41.03,-40.47,0,*5F
1521990112.32,10068,13.38,72572.8,-2.95,-40.65,-40.29,0,*59
1521990113.55,10069,13.38,72570.3,-2.91,-40.65,-40.09,0,*5E
1521990114.78,10070,13.38,72572.5,-2.95,-40.65,-40.29,0,*50
1521990116.0,10071,13.38,72578.3,-2.91,-40.65,-40.29,0,*55
1521990117.23,10072,13.38,72574.3,-2.95,-40.53,-40.09,0,*55
1521990118.51,10073,13.38,72572.8,-2.97,-40.59,-39.97,0,*55
1521990119.75,10074,13.38,72574.0,-2.95,-40.47,-39.97,0,*5F
1521990120.98,10075,13.38,72572.0,-2.95,-40.47,-40.09,0,*57
1521990122.21,10076,13.38,72576.5,-2.95,-40.47,-39.97,0,*5D
1521990123.42,10077,13.38,72574.3,-2.95,-40.35,-39.91,0,*5F
1521990124.67,10078,13.38,72574.5,-2.97,-40.53,-40.21,0,*57
1521990125.94,10079,13.38,72576.3,-2.97,-40.91,-40.59,0,*57
1521990127.16,10080,13.38,72574.3,-2.95,-40.65,-40.29,0,*5F
1521990128.43,10081,13.38,72574.8,-2.97,-40.91,-40.41,0,*59
1521990129.68,10082,13.38,72576.0,-2.97,-40.73,-40.21,0,*50
1521990130.92,10083,13.38,72572.0,-2.99,-40.15,-39.71,0,*54
1521990132.21,10084,13.38,72572.5,-2.97,-40.41,-39.97,0,*54
1521990133.49,10085,13.38,72574.5,-2.97,-40.41,-39.97,0,*55
1521990134.72,10086,13.38,72572.8,-2.99,-40.59,-40.35,0,*57
1521990136.0,10087,13.38,72572.8,-2.97,-40.79,-40.21,0,*5F
1521990137.23,10088,13.38,72574.5,-2.99,-40.79,-40.35,0,*5B
1521990138.44,10089,13.38,72576.0,-2.99,-41.11,-40.53,0,*55
1521990139.68,10090,13.38,72578.0,-2.99,-40.91,-40.59,0,*5E
1521990140.94,10091,13.38,72576.3,-2.99,-40.79,-40.41,0,*50
1521990142.17,10092,13.38,72574.5,-2.99,-40.59,-40.35,0,*52
1521990143.42,10093,13.38,72574.8,-3.01,-41.17,-40.79,0,*50
1521990144.71,10094,13.38,72576.8,-3.01,-40.97,-40.41,0,*55
1521990145.97,10095,13.38,72578.0,-3.03,-40.59,-40.21,0,*52
1521990147.22,10096,13.38,72576.8,-3.01,-40.29,-40.03,0,*54
1521990148.48,10097,13.38,72574.3,-3.01,-40.65,-40.21,0,*5D
1521990149.72,10098,13.38,72574.3,-3.03,-41.03,-40.59,0,*5E
1521990150.98,10099,13.38,72572.5,-3.01,-41.17,-40.59,0,*58
1521990152.24,10100,13.38,72572.0,-3.03,-40.79,-40.41,0,*5B
1521990153.45,10101,13.38,72576.8,-3.03,-41.17,-40.65,0,*55
1521990154.68,10102,13.38,72578.8,-3.05,-41.11,-40.65,0,*56
1521990155.97,10103,13.38,72576.0,-3.05,-41.23,-40.97,0,*5B
1521990157.18,10104,13.38,72574.3,-3.07,-41.17,-40.73,0,*53
1521990158.4,10105,13.38,72572.5,-3.07,-41.29,-40.79,0,*55
1521990159.66,10106,13.38,72574.5,-3.05,-40.85,-40.47,0,*5E
1521990160.89,10107,13.38,72574.3,-3.07,-40.59,-40.15,0,*5B
1521990162.15,10108,13.38,72572.5,-3.07,-40.41,-39.97,0,*59
1521990163.41,10109,13.38,72574.0,-3.05,-40.47,-40.09,0,*55
1521990164.61,10110,13.38,72574.8,-3.07,-40.73,-40.35,0,*57
1521990165.85,10111,13.38,72574.0,-3.07,-40.41,-40.15,0,*55
1521990167.07,10112,13.38,72570.3,-3.05,-40.53,-40.15,0,*57
1521990168.33,10113,13.38,72568.3,-3.07,-40.41,-39.97,0,*53
1521990169.6,10114,13.38,72572.0,-3.07,-40.41,-40.09,0,*5D
1521990170.83,10115,13.38,72574.8,-3.07,-40.59,-40.35,0,*5A
1521990172.09,10116,13.38,72574.0,-3.07,-40.59,-40.09,0,*56
1521990173.35,10117,13.38,72574.3,-3.09,-40.35,-39.97,0,*5A
1521990174.61,10118,13.38,72572.5,-3.09,-40.35,-39.79,0,*55
1521990175.86,10119,13.38,72574.8,-3.09,-40.21,-39.91,0,*57
1521990177.06,10120,13.38,72574.0,-3.07,-40.73,-40.35,0,*54
1521990178.32,10121,13.38,72572.5,-3.09,-40.35,-39.97,0,*5F
1521990179.58,10122,13.38,72574.5,-3.09,-40.21,-39.91,0,*5F
1521990180.83,10123,13.38,72572.0,-3.09,-40.53,-40.21,0,*5E
1521990182.08,10124,13.38,72570.3,-3.09,-40.21,-39.91,0,*59
1521990183.35,10125,13.38,72574.8,-3.09,-40.15,-39.79,0,*59
1521990184.62,10126,13.38,72572.3,-3.09,-40.15,-39.79,0,*5A
1521990185.91,10127,13.38,72574.3,-3.09,-39.97,-39.59,0,*5D
1521990187.19,10128,13.38,72574.3,-3.09,-40.21,-39.97,0,*53
1521990188.47,10129,13.38,72574.5,-3.09,-40.41,-39.97,0,*54
1521990189.73,10130,13.38,72576.5,-3.09,-40.53,-39.97,0,*5F
1521990190.96,10131,13.38,72574.3,-3.11,-40.41,-40.03,0,*57
1521990192.22,10132,13.38,72572.5,-3.11,-40.97,-40.59,0,*50
1521990193.48,10133,13.38,72578.3,-3.11,-40.79,-40.41,0,*58
1521990194.76,10134,13.38,72576.0,-3.09,-40.79,-40.41,0,*56
1521990195.99,10135,13.38,72576.0,-3.11,-40.29,-39.85,0,*5D
1521990197.26,10136,13.38,72572.3,-3.09,-39.97,-39.53,0,*57
1521990198.55,10137,13.38,72576.3,-3.13,-40.41,-39.97,0,*50
1521990199.75,10138,13.38,72574.8,-3.11,-40.47,-40.15,0,*5F
1521990201.01,10139,13.38,72574.0,-3.11,-40.29,-39.97,0,*52
1521990202.3,10140,13.38,72578.0,-3.09,-40.41,-40.09,0,*52
1521990203.52,10141,13.38,72572.3,-3.11,-40.29,-39.85,0,*5E
1521990204.73,10142,13.38,72572.0,-3.11,-39.85,-39.47,0,*5B
1521990205.95,10143,13.38,72574.0,-3.11,-39.97,-39.47,0,*59
1521990207.19,10144,13.38,72574.3,-3.11,-39.91,-39.53,0,*5D
1521990208.45,10145,13.38,72574.3,-3.11,-39.79,-39.41,0,*59
1521990209.74,10146,13.38,72574.0,-3.09,-39.71,-39.23,0,*5F
1521990211.0,10147,13.38,72574.5,-3.11,-39.97,-39.59,0,*52
1521990212.28,10148,13.38,72572.0,-3.09,-39.71,-39.23,0,*51
1521990213.48,10149,13.38,72574.0,-3.11,-40.03,-39.47,0,*50
1521990214.77,10150,13.38,72572.3,-3.09,-40.09,-39.53,0,*5E
1521990216.04,10151,13.44,72576.8,-3.09,-40.15,-39.79,0,*5A
1521990217.27,10152,13.38,72574.8,-3.11,-40.21,-39.65,0,*5A
1521990218.52,10153,13.38,72572.0,-3.09,-39.71,-39.35,0,*5C
1521990219.78,10154,13.38,72572.3,-3.09,-39.91,-39.53,0,*55
1521990220.98,10155,13.38,72570.3,-3.11,-40.03,-39.47,0,*5D
1521990222.24,10156,13.38,72574.0,-3.11,-40.21,-39.79,0,*53
1521990223.53,10157,13.38,72574.3,-3.09,-40.97,-40.41,0,*53
1521990224.81,10158,13.38,72572.8,-3.09,-40.59,-40.21,0,*58
1521990226.03,10159,13.38,72570.3,-3.11,-40.29,-39.85,0,*57
1521990227.29,10160,13.38,72572.5,-3.09,-40.35,-39.97,0,*5A
1521990228.52,10161,13.38,72574.8,-3.11,-40.65,-40.21,0,*54
1521990229.74,10162,13.38,72578.5,-3.11,-40.21,-39.85,0,*57
1521990230.98,10163,13.38,72572.5,-3.11,-40.15,-39.79,0,*52
1521990232.19,10164,13.38,72570.5,-3.11,-39.85,-39.47,0,*5F
1521990233.47,10165,13.38,72570.8,-3.09,-39.97,-39.53,0,*51
1521990234.69,10166,13.44,72574.5,-3.11,-40.15,-39.65,0,*5A
1521990235.91,10167,13.38,72572.0,-3.11,-40.21,-39.85,0,*52
1521990237.13,10168,13.38,72572.5,-3.11,-40.15,-39.91,0,*5F
1521990238.38,10169,13.38,72572.3,-3.11,-40.29,-39.97,0,*57
1521990239.61,10170,13.38,72572.3,-3.11,-40.29,-40.03,0,*5C
1521990240.86,10171,13.38,72572.8,-3.11,-40.21,-39.79,0,*56
1521990242.12,10172,13.38,72574.5,-3.11,-40.41,-39.97,0,*53
1521990243.36,10173,13.38,72572.8,-3.11,-40.41,-40.15,0,*56
1521990244.56,10174,13.38,72572.8,-3.11,-40.47,-40.03,0,*50
1521990245.84,10175,13.38,72570.8,-3.13,-40.29,-39.97,0,*58
1521990247.08,10176,13.38,72572.3,-3.13,-40.15,-39.65,0,*59
1521990248.36,10177,13.38,72570.3,-3.13,-40.41,-39.97,0,*54
1521990249.62,10178,13.38,72574.3,-3.11,-40.41,-39.97,0,*59
1521990250.88,10179,13.38,72568.8,-3.11,-40.79,-40.29,0,*58
1521990252.11,10180,13.38,72572.3,-3.11,-40.97,-40.47,0,*56
1521990253.36,10181,13.38,72570.8,-3.13,-40.65,-40.21,0,*58
1521990254.64,10182,13.38,72568.8,-3.13,-40.97,-40.41,0,*50
1521990255.9,10183,13.38,72572.5,-3.17,-40.73,-40.29,0,*51
1521990257.13,10184,13.38,72572.5,-3.13,-40.47,-40.15,0,*5A
1521990258.38,10185,13.38,72572.3,-3.13,-40.41,-40.03,0,*5A
1521990259.67,10186,13.38,72574.0,-3.13,-40.85,-40.41,0,*57
1521990260.9,10187,13.38,72572.8,-3.13,-40.47,-40.03,0,*5E
1521990262.15,10188,13.38,72572.0,-3.17,-40.47,-40.09,0,*5F
1521990263.43,10189,13.38,72570.3,-3.17,-40.21,-39.71,0,*5F
1521990264.71,10190,13.38,72572.3,-3.17,-40.21,-39.71,0,*57
1521990265.97,10191,13.38,72570.5,-3.17,-40.47,-40.09,0,*57
1521990267.19,10192,13.38,72574.5,-3.17,-40.35,-40.03,0,*5B
1521990268.42,10193,13.38,72574.0,-3.17,-40.47,-40.03,0,*5F
1521990269.66,10194,13.38,72574.5,-3.17,-40.91,-40.47,0,*53
1521990270.91,10195,13.38,72574.0,-3.17,-40.65,-40.29,0,*51
1521990272.13,10196,13.38,72570.5,-3.17,-40.73,-40.35,0,*58
1521990273.39,10197,13.38,72568.8,-3.17,-40.85,-40.35,0,*50
1521990274.63,10198,13.38,72568.8,-3.19,-41.11,-40.85,0,*56
1521990275.85,10199,13.38,72572.5,-3.19,-40.73,-40.29,0,*54
1521990277.07,10200,13.38,72570.0,-3.19,-40.91,-40.47,0,*53
1521990278.28,10201,13.38,72568.3,-3.19,-41.03,-40.53,0,*5D
1521990279.51,10202,13.38,72572.0,-3.19,-40.53,-40.29,0,*57
1521990280.74,10203,13.38,72574.5,-3.19,-40.85,-40.47,0,*55
1521990281.99,10204,13.38,72572.0,-3.21,-40.29,-39.91,0,*5A
1521990283.28,10205,13.44,72576.0,-3.21,-39.97,-39.59,0,*54
1521990284.48,10206,13.38,72572.0,-3.19,-40.65,-40.35,0,*5B
1521990285.71,10207,13.38,72572.0,-3.19,-40.73,-40.29,0,*50
1521990286.98,10208,13.38,72572.3,-3.21,-40.15,-39.71,0,*57
1521990288.27,10209,13.38,72572.0,-3.21,-40.41,-40.09,0,*56
1521990289.5,10210,13.38,72570.5,-3.21,-40.53,-40.15,0,*50
1521990290.7,10211,13.38,72572.5,-3.19,-40.65,-40.35,0,*5D
1521990291.95,10212,13.38,72570.3,-3.21,-40.97,-40.35,0,*58
1521990293.21,10213,13.38,72574.5,-3.21,-40.53,-40.09,0,*5E
1521990294.44,10214,13.38,72572.0,-3.21,-40.53,-40.15,0,*54
1521990295.69,10215,13.38,72570.3,-3.21,-40.53,-40.09,0,*58
1521990296.95,10216,13.38,72568.5,-3.21,-40.59,-40.15,0,*5C
1521990298.21,10217,13.38,72568.0,-3.23,-40.41,-39.97,0,*52
1521990299.44,10218,13.38,72570.8,-3.23,-40.41,-40.15,0,*59
1521990300.73,10219,13.38,72574.3,-3.21,-40.59,-40.29,0,*5C
1521990302.01,10220,13.38,72568.3,-3.21,-40.41,-39.97,0,*54
1521990303.3,10221,13.38,72572.5,-3.21,-40.41,-39.97,0,*55
1521990304.57,10222,13.44,72574.0,-3.21,-40.15,-39.71,0,*5F
1521990305.81,10223,13.38,72570.5,-3.23,-40.15,-39.79,0,*54
1521990307.07,10224,13.38,72572.0,-3.23,-40.09,-39.59,0,*5C
1521990308.34,10225,13.38,72574.5,-3.21,-40.15,-39.79,0,*50
1521990309.57,10226,13.38,72572.3,-3.21,-40.53,-40.15,0,*55
1521990310.8,10227,13.38,72570.3,-3.23,-40.35,-39.97,0,*52
1521990312.03,10228,13.38,72572.0,-3.23,-40.35,-39.97,0,*5D
1521990313.23,10229,13.38,72568.0,-3.23,-40.35,-39.85,0,*5F
1521990314.48,10230,13.38,72572.8,-3.23,-40.29,-39.71,0,*51
1521990315.73,10231,13.44,72574.5,-3.23,-40.29,-39.71,0,*50
1521990316.99,10232,13.38,72568.5,-3.23,-40.09,-39.71,0,*51
1521990318.25,10233,13.38,72574.0,-3.23,-40.41,-39.97,0,*54
1521990319.53,10234,13.38,72568.0,-3.21,-40.09,-39.53,0,*55
1521990320.79,10235,13.38,72568.0,-3.21,-40.29,-39.91,0,*58
1521990322.03,10236,13.38,72568.8,-3.19,-40.09,-39.65,0,*59
1521990323.26,10237,13.38,72572.5,-3.21,-40.35,-39.91,0,*57
1521990324.5,10238,13.38,72574.8,-3.21,-40.35,-39.91,0,*58
1521990325.75,10239,13.38,72572.3,-3.21,-40.35,-39.97,0,*5F
1521990327.04,10240,13.38,72568.8,-3.21,-40.09,-39.59,0,*5C
1521990328.31,10241,13.38,72574.5,-3.19,-39.71,-39.29,0,*50
1521990329.57,10242,13.44,72572.0,-3.21,-40.35,-40.09,0,*5A
1521990330.83,10243,13.44,72574.3,-3.21,-40.35,-40.09,0,*5B
1521990332.06,10244,13.38,72568.8,-3.19,-40.35,-40.09,0,*57
1521990333.32,10245,13.44,72574.5,-3.19,-40.21,-39.71,0,*52
1521990334.59,10246,13.38,72568.0,-3.21,-40.15,-39.59,0,*57
1521990335.86,10247,13.38,72572.0,-3.21,-40.15,-39.79,0,*54
1521990337.13,10248,13.44,72574.3,-3.21,-40.15,-39.71,0,*53
1521990338.4,10249,13.38,72568.5,-3.21,-40.15,-39.79,0,*5A
1521990339.67,10250,13.38,72572.5,-3.21,-39.97,-39.41,0,*5D
1521990340.95,10251,13.38,72568.8,-3.21,-39.97,-39.53,0,*5F
1521990342.15,10252,13.38,72572.0,-3.19,-40.35,-40.03,0,*5A
1521990343.44,10253,13.38,72568.3,-3.21,-40.41,-39.97,0,*50
1521990344.71,10254,13.44,72572.3,-3.21,-40.15,-39.59,0,*54
1521990345.92,10255,13.38,72568.3,-3.19,-39.91,-39.47,0,*53
1521990347.19,10256,13.38,72568.3,-3.21,-40.15,-39.71,0,*5C
1521990348.41,10257,13.38,72568.0,-3.19,-40.03,-39.53,0,*51
1521990349.67,10258,13.38,72572.3,-3.21,-39.91,-39.41,0,*53
1521990350.93,10259,13.38,72568.0,-3.19,-40.21,-39.71,0,*5F
1521990352.17,10260,13.38,72568.3,-3.19,-40.09,-39.65,0,*5A
1521990353.43,10261,13.38,72568.5,-3.19,-40.09,-39.71,0,*5E
1521990354.66,10262,13.38,72574.5,-3.19,-40.29,-39.91,0,*51
1521990355.89,10263,13.44,72574.8,-3.19,-40.21,-39.91,0,*58
1521990357.12,10264,13.38,72568.8,-3.19,-40.21,-39.91,0,*5F
1521990358.32,10265,13.38,72570.8,-3.19,-39.91,-39.35,0,*55
1521990359.55,10266,13.44,72574.3,-3.19,-40.29,-39.85,0,*50
1521990360.75,10267,13.44,72574.3,-3.19,-40.35,-40.03,0,*5C
1521990361.98,10268,13.38,72570.3,-3.19,-40.35,-39.97,0,*50
1521990363.19,10269,13.38,72574.8,-3.19,-39.91,-39.47,0,*5C
1521990364.4,10270,13.38,72572.5,-3.19,-39.47,-38.85,0,*50
1521990365.63,10271,13.38,72568.0,-3.19,-39.71,-39.35,0,*5E
1521990366.87,10272,13.44,72574.0,-3.19,-39.71,-38.97,0,*54
1521990368.11,10273,13.38,72570.8,-3.19,-39.85,-39.29,0,*5A
1521990369.36,10274,13.38,72570.8,-3.17,-39.85,-39.53,0,*5E
1521990370.59,10275,13.38,72572.5,-3.17,-39.85,-39.35,0,*5F
1521990371.86,10276,13.38,72566.8,-3.13,-40.15,-39.79,0,*57
1521990373.09,10277,13.44,72572.0,-3.17,-40.35,-40.03,0,*53
1521990374.29,10278,13.38,72570.3,-3.19,-40.03,-39.47,0,*59
1521990375.49,10279,13.38,72568.8,-3.19,-39.85,-39.47,0,*58
1521990376.72,10280,13.38,72570.0,-3.17,-39.85,-39.47,0,*50
1521990377.99,10281,13.44,72574.0,-3.17,-40.09,-39.65,0,*5B
1521990379.26,10282,13.38,72570.5,-3.17,-40.21,-39.71,0,*57
1521990380.49,10283,13.38,72570.5,-3.17,-40.65,-40.03,0,*5D
1521990381.76,10284,13.38,72570.3,-3.17,-40.29,-39.71,0,*59
1521990383.02,10285,13.38,72570.5,-3.17,-40.29,-39.91,0,*56
1521990384.27,10286,13.38,72570.8,-3.17,-40.21,-39.85,0,*58
1521990385.52,10287,13.38,72572.3,-3.17,-40.21,-39.65,0,*57
1521990386.81,10288,13.38,72574.0,-3.17,-39.71,-39.29,0,*5B
1521990388.06,10289,13.38,72572.8,-3.13,-40.03,-39.71,0,*58
1521990389.35,10290,13.38,72568.5,-3.13,-40.41,-39.97,0,*5E
1521990390.6,10291,13.38,72570.8,-3.17,-40.29,-40.03,0,*56
1521990391.85,10292,13.38,72570.0,-3.13,-40.97,-40.47,0,*54
1521990393.1,10293,13.38,72572.5,-3.17,-40.29,-39.85,0,*54
1521990394.36,10294,13.38,72570.8,-3.17,-40.29,-39.91,0,*56
1521990395.61,10295,13.38,72570.8,-3.17,-40.29,-39.91,0,*57
1521990396.86,10296,13.38,72568.5,-3.17,-40.29,-39.91,0,*54
1521990398.12,10297,13.38,72572.5,-3.17,-40.03,-39.53,0,*53
1521990399.34,10298,13.38,72572.8,-3.17,-40.03,-39.35,0,*5C
1521990400.57,10299,13.38,72570.3,-3.17,-39.85,-39.35,0,*5D
1521990401.8,10300,13.38,72570.8,-3.17,-39.91,-39.47,0,*5C
1521990403.06,10301,13.38,72570.3,-3.17,-39.65,-39.15,0,*51
1521990404.35,10302,13.38,72570.0,-3.13,-39.79,-39.23,0,*5E
1521990405.61,10303,13.38,72572.8,-3.13,-39.85,-39.41,0,*58
1521990406.89,10304,13.44,72574.0,-3.17,-40.09,-39.53,0,*52
1521990408.14,10305,13.38,72568.5,-3.17,-40.21,-39.65,0,*5C
1521990409.4,10306,13.44,72574.0,-3.13,-40.03,-39.59,0,*54
1521990410.65,10307,13.38,72570.8,-3.17,-40.29,-39.85,0,*58
1521990411.9,10308,13.38,72568.3,-3.13,-39.85,-39.41,0,*53
1521990413.17,10309,13.38,72568.5,-3.13,-39.59,-39.09,0,*5F
1521990414.42,10310,13.38,72570.8,-3.13,-39.97,-39.47,0,*5F
1521990415.65,10311,13.38,72570.0,-3.13,-40.03,-39.65,0,*5D
1521990416.9,10312,13.38,72568.0,-3.13,-40.15,-39.65,0,*59
1521990418.15,10313,13.38,72570.3,-3.11,-39.97,-39.41,0,*58
1521990419.43,10314,13.38,72570.8,-3.09,-39.97,-39.41,0,*56
1521990420.69,10315,13.38,72570.0,-3.11,-39.79,-39.23,0,*5A
1521990421.95,10316,13.38,72568.3,-3.11,-39.97,-39.59,0,*54
1521990423.21,10317,13.38,72570.8,-3.11,-39.97,-39.59,0,*55
1521990424.47,10318,13.44,72572.0,-3.09,-39.71,-39.09,0,*5E
1521990425.73,10319,13.38,72570.5,-3.09,-39.71,-39.35,0,*50
1521990426.96,10320,13.38,72572.8,-3.11,-40.03,-39.59,0,*52
1521990428.21,10321,13.38,72572.5,-3.09,-40.15,-39.91,0,*59
1521990429.46,10322,13.38,72574.5,-3.11,-40.29,-39.97,0,*5A
1521990430.67,10323,13.44,72572.8,-3.11,-40.03,-39.65,0,*5E
1521990431.96,10324,13.38,72570.5,-3.09,-40.09,-39.71,0,*5F
1521990433.23,10325,13.38,72574.8,-3.09,-40.15,-39.79,0,*5B
1521990434.5,10326,13.44,72574.5,-3.09,-40.15,-39.59,0,*5A
1521990435.78,10327,13.38,72568.8,-3.09,-39.97,-39.41,0,*56
1521990437.05,10328,13.44,72576.8,-3.09,-40.15,-39.79,0,*56
1521990438.34,10329,13.38,72574.0,-3.09,-40.09,-39.59,0,*58
1521990439.63,10330,13.38,72574.3,-3.09,-39.79,-39.53,0,*53
1521990440.9,10331,13.38,72568.0,-3.09,-39.91,-39.59,0,*5E
1521990442.16,10332,13.38,72570.0,-3.09,-39.91,-39.41,0,*54
1521990443.44,10333,13.38,72570.0,-3.09,-39.53,-39.15,0,*5A
1521990444.71,10334,13.38,72570.8,-3.09,-39.71,-38.85,0,*55
1521990445.95,10335,13.38,72570.8,-3.07,-39.91,-39.41,0,*5D
1521990447.2,10336,13.38,72568.5,-3.07,-39.97,-39.53,0,*5B
1521990448.44,10337,13.38,72570.5,-3.07,-40.15,-39.71,0,*5E
1521990449.71,10338,13.38,72568.0,-3.07,-40.09,-39.59,0,*56
1521990450.95,10339,13.38,72568.3,-3.07,-40.15,-39.71,0,*50
1521990452.21,10340,13.38,72572.3,-3.07,-39.97,-39.59,0,*50
1521990453.46,10341,13.38,72570.0,-3.05,-39.71,-39.35,0,*51
1521990454.75,10342,13.38,72572.3,-3.05,-39.71,-39.29,0,*5F
1521990456.0,10343,13.44,72572.0,-3.07,-40.09,-39.53,0,*50
1521990457.23,10344,13.44,72574.0,-3.05,-39.85,-39.35,0,*5F
1521990458.51,10345,13.38,72574.3,-3.05,-40.09,-39.71,0,*54
1521990459.78,10346,13.38,72572.0,-3.07,-40.09,-39.59,0,*5F
1521990461.01,10347,13.38,72574.0,-3.05,-39.85,-39.47,0,*59
1521990462.29,10348,13.38,72572.0,-3.05,-39.71,-39.29,0,*55
1521990463.57,10349,13.38,72572.5,-3.05,-39.71,-39.15,0,*5B
1521990464.8,10350,13.44,72574.3,-3.05,-39.91,-39.47,0,*5A
1521990466.04,10351,13.38,72574.3,-3.03,-40.03,-39.79,0,*55
1521990467.25,10352,13.44,72572.5,-3.03,-40.03,-39.65,0,*5B
1521990468.52,10353,13.38,72570.8,-3.03,-40.09,-39.59,0,*5F
1521990469.75,10354,13.38,72568.8,-3.03,-39.85,-39.41,0,*5B
1521990471.01,10355,13.38,72572.5,-3.03,-39.97,-39.59,0,*50
1521990472.26,10356,13.44,72574.8,-3.03,-40.21,-39.79,0,*52
1521990473.54,10357,13.38,72568.5,-3.01,-39.97,-39.41,0,*59
1521990474.78,10358,13.38,72568.8,-3.03,-39.85,-39.29,0,*59
1521990476.04,10359,13.38,72572.3,-3.03,-39.79,-39.29,0,*5B
1521990477.31,10360,13.38,72574.8,-3.01,-39.47,-39.03,0,*56
1521990478.59,10361,13.44,72574.0,-3.01,-39.97,-39.59,0,*55
1521990479.84,10362,13.44,72572.0,-3.03,-39.97,-39.41,0,*5D
1521990481.11,10363,13.44,72572.3,-3.03,-39.79,-39.29,0,*52
1521990482.39,10364,13.38,72572.0,-3.01,-39.97,-39.41,0,*59
1521990483.65,10365,13.44,72574.3,-3.01,-39.65,-39.29,0,*5B
1521990484.9,10366,13.38,72568.0,-3.01,-40.29,-39.85,0,*58
1521990486.11,10367,13.44,72574.0,-2.99,-40.35,-39.91,0,*51
1521990487.34,10368,13.44,72572.3,-3.01,-40.03,-39.47,0,*50
1521990488.59,10369,13.44,72572.0,-3.01,-39.97,-39.47,0,*52
1521990489.87,10370,13.38,72572.3,-3.01,-40.21,-39.79,0,*54
1521990491.15,10371,13.38,72572.8,-3.01,-40.29,-39.97,0,*5D
1521990492.41,10372,13.44,72572.8,-3.01,-40.29,-39.85,0,*5D
1521990493.66,10373,13.44,72574.0,-3.01,-40.09,-39.47,0,*50
1521990494.92,10374,13.38,72572.0,-3.01,-40.47,-39.97,0,*50
1521990496.15,10375,13.38,72568.5,-3.01,-40.47,-40.03,0,*52
1521990497.41,10376,13.38,72572.8,-3.01,-40.41,-39.85,0,*57
1521990498.67,10377,13.38,72570.5,-2.99,-40.59,-39.97,0,*5C